Albion, NE

3:33 AM CDT on June 26, 2017 (GMT -0500)
Albion Municipal

Weather History for KBVN - October, 2012

Change the Weather History Date:

Wednesday, October 24, 2012

  Actual Average (KOFK) Record (KOFK)
Temperature  
Mean Temperature 49 °F -  
Max Temperature 54 °F 60 °F 86 °F (1927)
Min Temperature 43 °F 37 °F 14 °F (1926)
Degree Days  
Heating Degree Days 16    
Moisture  
Dew Point 43 °F    
Average Humidity 81    
Maximum Humidity 99    
Minimum Humidity 54    
Precipitation  
Precipitation 0.00 in - - ()
Sea Level Pressure  
Sea Level Pressure 29.82 in    
Wind  
Wind Speed 12 mph (North)    
Max Wind Speed 23 mph    
Max Gust Speed 30 mph    
Visibility 6 miles    
Events Fog , Rain , Thunderstorm    
Averages and records for this station are not official NWS values.
T = Trace of Precipitation, MM = Missing Value Source: NWS Daily Summary

Daily Weather History Graph

Daily Weather History Graph

Search for Another Location

Airport or City:

Trip Planner

Search our weather history database for the weather conditions in past years. The results will help you decide how hot, cold, wet, or windy it might be!

Date:

Astronomy

Oct. 24, 2012 Rise Set
Actual Time 7:55 AM CDT 6:36 PM CDT
Civil Twilight 7:26 AM CDT 7:05 PM CDT
Nautical Twilight 6:54 AM CDT 7:37 PM CDT
Astronomical Twilight 6:22 AM CDT 8:09 PM CDT
Moon 3:56 PM CDT (10/24) 2:48 AM CDT (10/24)
Length of Visible Light 11h 38m
Length of Day
10h 41m
Waxing Gibbous, 76% of the Moon is Illuminated
Oct 24
Waxing Gibbous
Oct 29
Full
Nov 6
Last Quarter
Nov 13
New
Nov 20
First Quarter

Hourly Weather History & Observations

Time (CDT) Temp. Windchill Dew Point Humidity Pressure Visibility Wind Dir Wind Speed Gust Speed Precip Events Conditions
12:15 AM 46.6 °F - 46.0 °F 98% 29.78 in 0.5 mi NW 8.1 mph - N/A Fog Fog
12:35 AM 45.5 °F 40.3 °F 44.8 °F 97% 29.80 in 0.5 mi NW 10.4 mph - N/A Fog Fog
12:55 AM 45.9 °F 40.4 °F 45.5 °F 99% 29.81 in 0.5 mi NNW 11.5 mph - N/A Fog Fog
1:15 AM 47.5 °F - 47.1 °F 99% 29.81 in 0.5 mi NNW 11.5 mph - N/A Rain Light Rain
1:35 AM 48.7 °F - 48.4 °F 99% 29.81 in 0.5 mi NNW 10.4 mph - N/A   Light Drizzle
1:55 AM 49.6 °F - 49.3 °F 99% 29.81 in 0.8 mi NNW 5.8 mph - N/A   Overcast
2:15 AM 50.0 °F - 49.5 °F 98% 29.80 in 4.0 mi NNW 6.9 mph - N/A   Scattered Clouds
2:35 AM 50.0 °F - 49.5 °F 98% 29.80 in 5.0 mi North 8.1 mph - N/A   Clear
2:55 AM 49.5 °F - 49.1 °F 99% 29.82 in 5.0 mi NNE 5.8 mph 17.3 mph N/A   Mostly Cloudy
3:15 AM 50.4 °F - 50.0 °F 99% 29.82 in 1.2 mi NE 10.4 mph - N/A   Overcast
3:35 AM 50.9 °F - 50.4 °F 98% 29.81 in 3.0 mi NNE 13.8 mph - N/A   Overcast
3:55 AM 50.5 °F - 50.2 °F 99% 29.81 in 2.5 mi NNE 15.0 mph 18.4 mph N/A   Overcast
4:15 AM 50.5 °F - 50.2 °F 99% 29.81 in 2.5 mi NE 15.0 mph 19.6 mph N/A   Overcast
4:35 AM 50.4 °F - 50.0 °F 99% 29.80 in 2.0 mi NNE 13.8 mph 20.7 mph N/A   Overcast
4:55 AM 50.0 °F - 49.6 °F 99% 29.81 in 2.0 mi NNE 9.2 mph - N/A   Overcast
5:15 AM 49.5 °F - 49.1 °F 99% 29.82 in 1.2 mi North 13.8 mph 18.4 mph N/A   Overcast
5:35 AM 49.1 °F - 48.7 °F 99% 29.81 in 1.5 mi North 13.8 mph 18.4 mph N/A   Overcast
5:55 AM 48.7 °F - 48.4 °F 99% 29.80 in 1.0 mi North 16.1 mph 19.6 mph N/A   Overcast
6:15 AM 48.7 °F - 48.4 °F 99% 29.82 in 1.5 mi North 10.4 mph 17.3 mph N/A   Overcast
6:35 AM 48.7 °F - 48.4 °F 99% 29.82 in 1.5 mi North 9.2 mph 17.3 mph N/A   Overcast
6:55 AM 49.1 °F - 48.6 °F 98% 29.82 in 2.0 mi North 8.1 mph - N/A   Overcast
7:15 AM 49.1 °F - 48.7 °F 99% 29.82 in 4.0 mi North 10.4 mph 16.1 mph N/A   Overcast
7:35 AM 49.6 °F - 49.3 °F 99% 29.83 in 5.0 mi North 10.4 mph 18.4 mph N/A   Overcast
7:55 AM 50.0 °F - 49.6 °F 99% 29.83 in 5.0 mi North 10.4 mph - N/A   Overcast
8:15 AM 50.0 °F - 49.5 °F 98% 29.84 in 4.0 mi North 9.2 mph - N/A   Light Drizzle
8:35 AM 49.1 °F - 48.2 °F 97% 29.83 in 4.0 mi North 11.5 mph - N/A   Light Drizzle
8:55 AM 48.9 °F - 47.5 °F 95% 29.84 in 4.0 mi North 10.4 mph - N/A   Light Drizzle
9:15 AM 48.2 °F - 46.4 °F 93% 29.85 in 4.0 mi North 16.1 mph 20.7 mph N/A   Light Drizzle
9:35 AM 48.0 °F - 45.9 °F 92% 29.85 in 4.0 mi North 16.1 mph - N/A   Overcast
9:55 AM 47.8 °F - 45.7 °F 92% 29.84 in 4.0 mi North 11.5 mph - N/A   Overcast
10:15 AM 48.2 °F - 45.9 °F 92% 29.85 in 5.0 mi North 11.5 mph 17.3 mph N/A   Overcast
10:35 AM 47.7 °F - 45.5 °F 92% 29.85 in 5.0 mi North 13.8 mph - N/A   Overcast
10:55 AM 47.8 °F - 45.5 °F 92% 29.84 in 5.0 mi North 11.5 mph - N/A   Overcast
11:15 AM 48.2 °F - 45.5 °F 90% 29.86 in 7.0 mi NNW 12.7 mph 18.4 mph N/A   Overcast
11:35 AM 48.2 °F - 45.5 °F 90% 29.84 in 7.0 mi North 16.1 mph 19.6 mph N/A   Overcast
11:55 AM 48.6 °F - 45.5 °F 89% 29.84 in 7.0 mi North 11.5 mph 19.6 mph N/A   Overcast
12:15 PM 48.7 °F - 45.1 °F 87% 29.83 in 10.0 mi North 16.1 mph 21.9 mph N/A   Overcast
12:35 PM 49.6 °F - 44.6 °F 83% 29.82 in 10.0 mi North 10.4 mph 16.1 mph N/A   Overcast
12:55 PM 49.6 °F - 43.7 °F 80% 29.82 in 10.0 mi North 12.7 mph 21.9 mph N/A   Overcast
1:15 PM 49.6 °F - 43.2 °F 78% 29.82 in 10.0 mi North 12.7 mph - N/A   Overcast
1:35 PM 50.0 °F - 42.8 °F 76% 29.82 in 10.0 mi North 13.8 mph 23.0 mph N/A   Overcast
1:55 PM 49.8 °F - 42.6 °F 76% 29.81 in 10.0 mi North 17.3 mph 23.0 mph N/A   Overcast
2:15 PM 49.3 °F - 42.6 °F 78% 29.80 in 10.0 mi North 12.7 mph - N/A   Overcast
2:35 PM 50.0 °F - 42.6 °F 76% 29.79 in 10.0 mi North 16.1 mph 21.9 mph N/A   Overcast
2:55 PM 50.5 °F - 42.6 °F 74% 29.79 in 10.0 mi North 16.1 mph 21.9 mph N/A   Overcast
3:15 PM 51.8 °F - 42.6 °F 71% 29.78 in 10.0 mi North 12.7 mph 18.4 mph N/A   Overcast
3:35 PM 52.7 °F - 41.7 °F 66% 29.79 in 10.0 mi North 13.8 mph - N/A   Overcast
3:55 PM 53.6 °F - 41.2 °F 63% 29.79 in 10.0 mi North 9.2 mph - N/A   Overcast
4:15 PM 54.1 °F - 40.6 °F 60% 29.79 in 10.0 mi North 9.2 mph 16.1 mph N/A   Overcast
4:35 PM 54.1 °F - 41.0 °F 61% 29.78 in 10.0 mi NNE 15.0 mph 18.4 mph N/A   Overcast
4:55 PM 53.6 °F - 39.6 °F 59% 29.79 in 10.0 mi NNE 12.7 mph 21.9 mph N/A   Overcast
5:15 PM 52.7 °F - 39.9 °F 62% 29.80 in 10.0 mi North 12.7 mph 20.7 mph N/A   Overcast
5:35 PM 51.4 °F - 41.0 °F 68% 29.80 in 10.0 mi NNE 16.1 mph 21.9 mph N/A   Overcast
5:55 PM 51.3 °F - 40.6 °F 67% 29.81 in 10.0 mi North 15.0 mph 18.4 mph N/A   Overcast
6:15 PM 51.3 °F - 39.9 °F 65% 29.81 in 10.0 mi North 13.8 mph 23.0 mph N/A   Overcast
6:35 PM 51.1 °F - 39.2 °F 64% 29.81 in 10.0 mi North 16.1 mph 25.3 mph N/A   Overcast
6:55 PM 50.5 °F - 39.2 °F 65% 29.80 in 10.0 mi North 16.1 mph 23.0 mph N/A   Overcast
7:15 PM 50.2 °F - 39.2 °F 66% 29.80 in 10.0 mi NNE 18.4 mph 28.8 mph N/A   Overcast
7:35 PM 50.2 °F - 39.2 °F 66% 29.81 in 10.0 mi North 19.6 mph 25.3 mph N/A   Overcast
7:55 PM 50.0 °F - 37.4 °F 62% 29.81 in 10.0 mi North 15.0 mph 20.7 mph N/A   Overcast
8:15 PM 50.0 °F - 36.3 °F 59% 29.81 in 10.0 mi North 15.0 mph 23.0 mph N/A   Overcast
8:35 PM 49.3 °F - 33.4 °F 54% 29.83 in 10.0 mi North 16.1 mph 27.6 mph N/A   Overcast
9:15 PM 48.6 °F - 33.1 °F 55% 29.84 in 10.0 mi North 13.8 mph 25.3 mph N/A Rain Light Rain
9:35 PM 47.7 °F - 32.2 °F 55% 29.84 in 10.0 mi North 18.4 mph 25.3 mph N/A   Overcast
9:55 PM 47.3 °F - 32.0 °F 55% 29.83 in 10.0 mi North 20.7 mph 25.3 mph N/A   Overcast
10:15 PM 46.9 °F - 32.0 °F 56% 29.86 in 10.0 mi North 10.4 mph 24.2 mph N/A   Overcast
10:35 PM 46.0 °F 39.0 °F 32.0 °F 58% 29.87 in 10.0 mi North 17.3 mph 27.6 mph N/A   Overcast
10:55 PM 45.7 °F 38.3 °F 31.8 °F 58% 29.83 in 10.0 mi North 18.4 mph 24.2 mph N/A   Overcast
11:15 PM 45.0 °F 36.6 °F 31.1 °F 58% 29.80 in 10.0 mi North 21.9 mph 29.9 mph N/A   Overcast
11:35 PM 44.6 °F 36.6 °F 30.9 °F 59% 29.81 in 10.0 mi North 19.6 mph 28.8 mph N/A Thunderstorm Thunderstorm
11:55 PM 43.7 °F 34.7 °F 30.6 °F 60% 29.81 in 10.0 mi North 23.0 mph 29.9 mph N/A Thunderstorm Thunderstorm